[[{"header":{"parameterUnit":"m.s-1","parameterCategory":1,"la1":30.2991,"la2":30.254,"lo1":-89.0895,"lo2":-89.0444,"dy":0.0017,"dx":0.0017,"nx":28,"ny":28,"refTime":"2023-10-18T03:00:00:Z","depth":0,"parameterNumber":2,"parameterNumberName":"U-component_of_WINDS"},"data":[0,0,0,0,0,0,0,0,0,0,0,0,0,0,0,0,0,0,0,0,0,0,0,0,0,0,0,0,0,0,0,0,0,0,0,0,0,0,0,0,0,0,0,0,0,0,0,0,0,0,0,0,0,0,0,0,0,0,1.3439,1.344,0,1.3493,1.3493,1.3494,1.3503,1.3503,1.3502,1.3502,1.3553,1.3555,1.3557,0,0,0,0,0,0,0,0,0,0,0,0,0,1.3343,1.3345,1.3439,1.344,1.3441,1.3492,1.3493,1.3494,1.3503,1.3503,1.3502,1.3502,1.3553,1.3555,1.3557,0,0,0,0,0,0,0,0,0,0,0,0,0,1.3389,1.3345,1.3439,1.3452,1.3453,1.3492,1.3493,1.3494,1.3503,1.3503,1.3502,1.3502,1.3552,1.3555,1.3557,1.3586,0,0,1.3565,1.3566,0,0,0,0,0,0,0,0,1.3387,1.3393,1.3449,1.3451,1.3453,1.3491,1.3478,1.3525,1.3504,1.3484,1.3502,1.3501,1.3533,1.3537,1.3548,1.3589,1.3591,1.3566,1.3567,1.3568,1.3569,0,0,0,0,0,0,0,1.3384,1.3391,1.346,1.345,1.3452,1.3454,1.346,1.3487,1.3511,1.3486,1.3487,1.3493,1.3534,1.3546,1.355,1.3592,1.3565,1.3568,1.3569,1.357,1.366,1.3661,0,0,0,0,0,0,1.3379,1.3388,1.3458,1.3462,1.3418,1.3456,1.3463,1.3479,1.3511,1.3515,1.3494,1.3493,1.3541,1.3546,1.3551,1.3588,1.3568,1.3571,1.3572,1.3659,1.366,1.3661,0,0,0,0,0,0,1.3376,1.3385,1.3456,1.3425,1.3434,1.3458,1.3477,1.348,1.3493,1.3517,1.3521,1.3502,1.3541,1.3548,1.3578,1.359,1.3572,1.3574,1.3658,1.3659,1.366,1.3662,0,0,0,0,0,0,1.3374,1.3384,1.3396,1.3425,1.3436,1.3483,1.3478,1.3482,1.3498,1.3498,1.3526,1.353,1.3541,1.3574,1.3581,1.3593,1.3576,1.3657,1.3659,1.366,1.3661,1.3663,1.3665,0,0,0,0,0,1.337,1.3393,1.3396,1.3405,1.3452,1.3484,1.349,1.3503,1.3498,1.351,1.3526,1.3529,1.3588,1.3577,1.3585,1.3598,1.3656,1.3658,1.366,1.366,1.3663,1.3665,0,0,0,0,0,0,1.3363,1.3397,1.3401,1.3435,1.3456,1.3485,1.35,1.3506,1.3528,1.3527,1.3542,1.3549,1.3578,1.3591,1.3579,1.3629,1.3622,1.3625,1.3619,1.3622,1.3624,1.362,1.3579,0,0,0,0,0,1.3365,1.339,1.3418,1.3445,1.3455,1.3476,1.3491,1.35,1.3522,1.3531,1.3549,1.357,1.3593,1.3608,1.3631,1.3663,1.3669,1.3676,1.3678,1.3679,1.3682,1.37,1.3704,1.3667,1.3667,1.3667,0,0,1.337,1.3392,1.3406,1.3444,1.3462,1.3486,1.3484,1.3509,1.3527,1.3534,1.3565,1.3579,1.3603,1.3635,1.3649,1.3646,1.3694,1.3682,1.3683,1.3685,1.3703,1.3706,1.3709,1.3668,1.3668,1.3667,0,0,1.3392,1.3411,1.3436,1.3454,1.3482,1.3495,1.3501,1.353,1.354,1.3571,1.3577,1.3598,1.3638,1.3656,1.3669,1.3699,1.3702,1.3706,1.3716,1.3733,1.3736,1.3739,1.375,1.3753,1.3708,1.3708,1.3708,0,1.3394,1.3432,1.3447,1.3473,1.3489,1.3499,1.3524,1.354,1.3573,1.3584,1.3581,1.3632,1.3649,1.3685,1.3692,1.3703,1.371,1.3702,1.3735,1.3738,1.374,1.3751,1.3755,1.3709,1.3709,1.3708,1.3708,0,1.3433,1.3459,1.3476,1.3509,1.3527,1.3552,1.3571,1.3587,1.3595,1.3609,1.364,1.3661,1.3689,1.3698,1.3705,1.3735,1.3733,1.3732,1.3725,1.3744,1.3754,1.3758,1.3709,1.3709,1.3709,1.3709,0,0,1.3451,1.3494,1.35,1.3515,1.3547,1.3567,1.3592,1.362,1.3634,1.3657,1.3678,1.3712,1.3712,1.3728,1.3737,1.3753,1.3775,1.375,1.3751,1.3754,1.381,1.381,1.3815,1.3778,1.3778,1.3779,1.3808,0,1.3476,1.3523,1.3539,1.3577,1.3601,1.3611,1.3633,1.3655,1.3669,1.3691,1.3705,1.373,1.3727,1.3737,1.3753,1.3769,1.3786,1.3767,1.3797,1.3798,1.3791,1.382,1.382,1.3846,1.3812,1.3812,1.3813,0,1.3512,1.3537,1.3578,1.3608,1.3619,1.3638,1.3666,1.3687,1.3711,1.372,1.3739,1.3747,1.3773,1.3765,1.3802,1.3788,1.3802,1.3811,1.3813,1.3816,1.3806,1.3824,1.3855,1.3859,1.3819,1.3819,1.3818,0,1.3521,1.3565,1.3596,1.3609,1.3644,1.3657,1.3672,1.3696,1.3713,1.3736,1.3747,1.3773,1.3787,1.3807,1.3822,1.3815,1.3857,1.385,1.3865,1.3864,1.3873,1.3872,1.3907,1.3881,1.3881,1.3881,1.3881,0,1.3548,1.3573,1.36,1.3619,1.3647,1.3665,1.3692,1.3707,1.3729,1.375,1.376,1.378,1.3798,1.382,1.3832,1.386,1.3867,1.3874,1.3877,1.3874,1.3873,1.3882,1.3881,1.3882,1.3882,1.3882,1.3882,0,1.3562,1.3582,1.3616,1.3647,1.3656,1.3675,1.3701,1.372,1.3734,1.3762,1.3769,1.3792,1.3818,1.3835,1.3868,1.3876,1.3908,1.391,1.39,1.3901,1.3915,1.3913,1.3957,1.3963,1.3934,1.3934,1.3934,0,1.3578,1.3598,1.3632,1.3648,1.3663,1.3688,1.3705,1.3723,1.374,1.377,1.3785,1.3813,1.3836,1.3878,1.3896,1.3922,1.3925,1.3939,1.3929,1.3925,1.3925,1.3924,1.3926,1.394,1.394,1.394,1.3941,0,1.3604,1.3613,1.3638,1.3667,1.3688,1.3711,1.3733,1.3746,1.3767,1.3786,1.3814,1.3832,1.3867,1.3894,1.3922,1.3936,1.3942,1.3944,1.3948,1.3945,1.3938,1.3942,1.3904,1.3942,1.3942,1.3942,1.3942,1.3942,1.362,1.3638,1.3665,1.3693,1.3713,1.3734,1.3753,1.3771,1.3795,1.3826,1.3835,1.3864,1.3888,1.3926,1.3942,1.3964,1.3962,1.3969,1.3971,1.3972,1.3973,1.3935,1.3969,1.3969,1.3969,1.3969,1.3969,0,1.3647,1.3665,1.369,1.3723,1.3745,1.375,1.3775,1.3793,1.3819,1.3842,1.3865,1.3897,1.3924,1.3946,1.3973,1.3987,1.399,1.3993,1.3992,1.3996,1.3973,1.3966,1.399,1.399,1.399,1.399,1.399,1.399,1.3663,1.3695,1.3707,1.3748,1.3766,1.3796,1.381,1.383,1.3849,1.3885,1.3908,1.3922,1.3944,1.3973,1.3998,1.4003,1.4013,1.4016,1.4022,1.4,1.3997,1.3995,1.3989,1.4018,1.4018,1.4043,1.4043,1.4044]},{"header":{"parameterUnit":"m.s-1","parameterCategory":1,"la1":30.2991,"la2":30.254,"lo1":-89.0895,"lo2":-89.0444,"dy":0.0017,"dx":0.0017,"nx":28,"ny":28,"refTime":"2023-10-18T03:00:00:Z","depth":0,"parameterNumber":3,"parameterNumberName":"V-component_of_WINDS"},"data":[0,0,0,0,0,0,0,0,0,0,0,0,0,0,0,0,0,0,0,0,0,0,0,0,0,0,0,0,0,0,0,0,0,0,0,0,0,0,0,0,0,0,0,0,0,0,0,0,0,0,0,0,0,0,0,0,0,0,1.0848,1.0849,0,1.0898,1.0898,1.0899,1.0926,1.0926,1.0926,1.0926,1.0974,1.0975,1.0976,0,0,0,0,0,0,0,0,0,0,0,0,0,1.0774,1.0775,1.0848,1.0849,1.0849,1.0897,1.0898,1.0899,1.0926,1.0926,1.0926,1.0926,1.0973,1.0975,1.0976,0,0,0,0,0,0,0,0,0,0,0,0,0,1.0813,1.0776,1.0848,1.0869,1.0871,1.0897,1.0898,1.0899,1.0926,1.0926,1.0926,1.0926,1.0973,1.0975,1.0977,1.0985,0,0,1.0982,1.0983,0,0,0,0,0,0,0,0,1.0811,1.0816,1.0865,1.0867,1.087,1.0906,1.089,1.0928,1.0926,1.0905,1.0926,1.0926,1.0951,1.0955,1.0963,1.0987,1.0989,1.0982,1.0983,1.0984,1.0984,0,0,0,0,0,0,0,1.0808,1.0814,1.0868,1.0866,1.0869,1.0875,1.088,1.0897,1.0926,1.0907,1.0909,1.0915,1.0952,1.0962,1.0965,1.099,1.0982,1.0984,1.0985,1.0985,1.1023,1.1023,0,0,0,0,0,0,1.0802,1.0811,1.0866,1.0869,1.084,1.0876,1.0882,1.0894,1.0926,1.0932,1.0914,1.0916,1.0959,1.0963,1.0967,1.0979,1.0984,1.0986,1.0987,1.1023,1.1023,1.1023,0,0,0,0,0,0,1.0801,1.0807,1.0864,1.0841,1.0848,1.0877,1.089,1.0895,1.0904,1.0932,1.0937,1.0919,1.0959,1.0964,1.098,1.0981,1.0986,1.0988,1.1023,1.1023,1.1023,1.1003,0,0,0,0,0,0,1.0798,1.0806,1.0811,1.0841,1.085,1.0878,1.089,1.0896,1.0908,1.091,1.0938,1.0942,1.0959,1.0978,1.0982,1.0983,1.0989,1.1023,1.1023,1.1023,1.1004,1.1002,1.1001,0,0,0,0,0,1.0796,1.0802,1.0811,1.0817,1.0856,1.0878,1.0883,1.0903,1.0908,1.0912,1.093,1.0941,1.098,1.0979,1.0984,1.0986,1.1023,1.1023,1.1023,1.1004,1.1003,1.1001,0,0,0,0,0,0,1.0771,1.0807,1.0816,1.0833,1.0852,1.0882,1.0888,1.09,1.0918,1.0919,1.0942,1.0948,1.0963,1.0976,1.0974,1.0996,1.1003,1.1004,1.0987,1.0985,1.0984,1.098,1.0991,0,0,0,0,0,1.0767,1.0783,1.0813,1.0825,1.0834,1.086,1.087,1.0884,1.0904,1.0912,1.0931,1.095,1.0966,1.0976,1.0993,1.1006,1.1012,1.1009,1.1008,1.1007,1.1007,1.1015,1.1014,1.1022,1.1022,1.1022,0,0,1.076,1.0781,1.079,1.0821,1.0837,1.0852,1.0866,1.0882,1.0893,1.0914,1.0932,1.0946,1.0968,1.0983,1.099,1.0994,1.1006,1.1006,1.1005,1.1007,1.1015,1.1014,1.1013,1.1022,1.1022,1.1022,0,0,1.0754,1.0773,1.0785,1.0801,1.0826,1.0843,1.0846,1.0874,1.0885,1.0902,1.0919,1.0932,1.0959,1.0975,1.0986,1.0986,1.0997,1.0991,1.0983,1.099,1.099,1.0989,1.0989,1.0989,1.0991,1.0991,1.0991,0,1.0742,1.0767,1.0789,1.0804,1.0816,1.0837,1.0849,1.0864,1.0892,1.09,1.0905,1.094,1.0956,1.0975,1.0975,1.0983,1.0986,1.0988,1.0988,1.0988,1.0988,1.0988,1.0988,1.099,1.099,1.099,1.099,0,1.075,1.0766,1.0773,1.0801,1.0815,1.0828,1.0851,1.0862,1.0874,1.089,1.0907,1.0928,1.0949,1.0954,1.0966,1.0974,1.0976,1.0984,1.0991,1.0986,1.0986,1.0986,1.0989,1.0989,1.0989,1.0989,0,0,1.073,1.0771,1.0773,1.0786,1.0815,1.0828,1.0842,1.0863,1.0872,1.0891,1.0902,1.0925,1.0933,1.0945,1.0959,1.0965,1.0964,1.0973,1.0974,1.097,1.0974,1.0968,1.0968,1.0972,1.0972,1.0972,1.0972,0,1.0729,1.0756,1.0776,1.0795,1.081,1.083,1.0842,1.0861,1.0876,1.089,1.0906,1.0922,1.0931,1.0939,1.0946,1.0963,1.0965,1.0963,1.0982,1.0983,1.0976,1.0968,1.0962,1.0961,1.0972,1.0973,1.0973,0,1.0732,1.0751,1.0772,1.0799,1.0806,1.0817,1.0838,1.0852,1.0873,1.0883,1.0897,1.0912,1.0926,1.0932,1.0952,1.095,1.0959,1.0968,1.0969,1.0971,1.0977,1.0971,1.0961,1.0961,1.0973,1.0973,1.0973,0,1.0716,1.0747,1.0763,1.0773,1.0806,1.0813,1.0826,1.0848,1.0859,1.0877,1.0885,1.0904,1.0914,1.0928,1.0947,1.095,1.0965,1.0972,1.0973,1.0973,1.0976,1.0976,1.0968,1.0981,1.0981,1.0981,1.0981,0,1.0713,1.0724,1.0756,1.0766,1.078,1.0802,1.0814,1.083,1.0848,1.0861,1.0879,1.089,1.0914,1.0928,1.0943,1.0957,1.0961,1.0969,1.0973,1.0968,1.0967,1.0974,1.0975,1.0981,1.0981,1.0981,1.0981,0,1.0697,1.0719,1.0738,1.0768,1.0775,1.0784,1.0808,1.0818,1.0834,1.085,1.0855,1.0879,1.0897,1.0917,1.094,1.095,1.0963,1.0968,1.0956,1.0958,1.0958,1.0958,1.0956,1.0956,1.0968,1.0968,1.0968,0,1.0694,1.0704,1.0734,1.0745,1.0758,1.0774,1.0786,1.0808,1.082,1.0845,1.0851,1.087,1.0887,1.0913,1.0932,1.095,1.0956,1.0954,1.0959,1.0953,1.0956,1.0956,1.0957,1.0953,1.0953,1.0952,1.0952,0,1.0686,1.0696,1.0714,1.0735,1.0749,1.0766,1.0784,1.0791,1.0817,1.0829,1.0847,1.086,1.0884,1.0902,1.0923,1.0936,1.0948,1.095,1.0952,1.0947,1.0939,1.0943,1.0953,1.095,1.0951,1.0951,1.0951,1.0951,1.0677,1.0686,1.0709,1.0728,1.0744,1.076,1.0771,1.0789,1.0805,1.0827,1.0839,1.0857,1.0877,1.0906,1.0918,1.0932,1.0936,1.0938,1.0939,1.0939,1.0937,1.0937,1.0936,1.0936,1.0936,1.0936,1.0936,0,1.067,1.0686,1.0703,1.0728,1.0742,1.0753,1.0774,1.0785,1.0801,1.0819,1.0835,1.0856,1.0873,1.0894,1.0913,1.092,1.0926,1.0924,1.0924,1.0927,1.0932,1.093,1.0919,1.0919,1.0919,1.0919,1.0919,1.0919,1.0668,1.0685,1.0698,1.0722,1.0738,1.0756,1.0767,1.0782,1.0797,1.082,1.0835,1.0848,1.0868,1.0888,1.0904,1.091,1.0916,1.0912,1.0919,1.0925,1.0926,1.0928,1.0925,1.0913,1.0913,1.0913,1.0913,1.0912]}]]